sat.trackr.live / text

‹ back to catalog

STARLINK-3272

NORAD 50187 · 2021-125AH

PAYLOAD ACTIVE UNKNOWN

§ Identity

Operator
Country
US
Launch date
2021-12-18
Launch site
AFWTR
Launch vehicle
Mass (kg)
RCS (m²)

Purposes: comms

External: N2YO · Heavens-Above · Gunter

§ Orbital elements

Epoch: 2026-09-20T03:36:05.309280Z

Period
95.06 min
Inclination
53.2136°
Eccentricity
0.0002127
Mean motion
15.14778828 rev/d
Perigee alt
520.2 km
Apogee alt
523.1 km
Semi-major
6,899.8 km
B*
9.0820e-4
RAAN
82.1865°
Arg perigee
132.6600°
Mean anomaly
227.4574°
Rev number
26,613

§ Raw data

STARLINK-32721 50187U 21125AH  26263.15006145  .00016785  00000+0  90820-3 0  99912 50187  53.2136  82.1865 0002127 132.6600 227.4574 15.14778828266133

JSON: /api/v1/satellites/50187 · /tle

For live sub-satellite position, see the globe view (requires WebGL).

§ Visibility from observer

Set your observer location to see the next 7 days of passes ≥ 10°. The values pass through the URL so the page stays shareable.

No JS? Fill the form by hand. The geolocation button needs JavaScript.